When you browse on this site, cookies collect data to enhance your experience and personalize the content and advertising you see.
Visit our Privacy Policy to learn more. By continuing to use the site, you agree to this use of cookies and data.
  • In Portugal
  • List of Countries
  • For 7 days
  • Water Temperature
  • Satellite Maps
  • Weather Map
  • Weather Widgets
  • user-avatar
    Login

    Hourly Weather Diveevka

    Today, 25 June, Tuesday

    Time Temperature Precipitation Wind Pressure Humidity
    00:00 +14°C° 0 mm 3 mps 752 mmHg 69%
    01:00 +13°C° 0 mm 3 mps 752 mmHg 72%
    02:00 +12°C° 0 mm 3 mps 752 mmHg 75%
    03:00 +13°C° 0 mm 2 mps 753 mmHg 80%
    04:00 +12°C° 0 mm 3 mps 753 mmHg 78%
    05:00 +13°C° 0 mm 3 mps 753 mmHg 76%
    06:00 +14°C° 0 mm 3 mps 753 mmHg 74%
    07:00 +15°C° 0 mm 4 mps 754 mmHg 69%
    08:00 +18°C° 0 mm 4 mps 754 mmHg 63%
    09:00 +19°C° 0 mm 4 mps 754 mmHg 58%
    10:00 +20°C° 0 mm 4 mps 754 mmHg 55%
    11:00 +21°C° 0 mm 4 mps 754 mmHg 52%
    12:00 +22°C° 0 mm 3 mps 754 mmHg 50%
    13:00 +22°C° 0 mm 3 mps 754 mmHg 49%
    14:00 +22°C° 0 mm 3 mps 754 mmHg 48%
    15:00 +22°C° 0 mm 3 mps 754 mmHg 48%
    16:00 +21°C° 0 mm 3 mps 754 mmHg 52%
    17:00 +21°C° 0 mm 3 mps 754 mmHg 55%
    18:00 +20°C° 0 mm 3 mps 754 mmHg 59%
    19:00 +19°C° 0 mm 3 mps 754 mmHg 65%
    20:00 +17°C° 0 mm 3 mps 754 mmHg 70%
    21:00 +14°C° 0 mm 3 mps 754 mmHg 75%
    22:00 +14°C° 0 mm 2 mps 754 mmHg 79%
    23:00 +13°C° 0 mm 2 mps 754 mmHg 83%

    Tomorrow, 26 June, Wednesday

    Time Temperature Precipitation Wind Pressure Humidity
    00:00 +12°C° 0 mm 2 mps 754 mmHg 87%
    01:00 +12°C° 0 mm 2 mps 754 mmHg 89%
    02:00 +10°C° 0 mm 2 mps 754 mmHg 90%
    03:00 +10°C° 0 mm 2 mps 755 mmHg 91%
    04:00 +12°C° 0 mm 2 mps 755 mmHg 88%
    05:00 +12°C° 0 mm 2 mps 755 mmHg 84%
    06:00 +13°C° 0 mm 2 mps 754 mmHg 80%
    07:00 +14°C° 0 mm 3 mps 754 mmHg 71%
    08:00 +16°C° 0 mm 3 mps 754 mmHg 62%
    09:00 +18°C° 0 mm 3 mps 754 mmHg 54%
    10:00 +19°C° 0 mm 3 mps 754 mmHg 51%
    11:00 +20°C° 0 mm 3 mps 754 mmHg 48%
    12:00 +20°C° 0 mm 3 mps 753 mmHg 46%
    13:00 +21°C° 0 mm 2 mps 753 mmHg 46%
    14:00 +21°C° 0 mm 2 mps 753 mmHg 46%
    15:00 +21°C° 0 mm 2 mps 752 mmHg 46%
    16:00 +21°C° 0 mm 2 mps 752 mmHg 50%
    17:00 +20°C° 0 mm 2 mps 751 mmHg 55%
    18:00 +20°C° 0 mm 3 mps 751 mmHg 60%
    19:00 +18°C° 0.2 mm 2 mps 750 mmHg 70%
    20:00 +16°C° 0.2 mm 1 mps 750 mmHg 80%
    21:00 +14°C° 0.2 mm 1 mps 750 mmHg 90%
    22:00 +14°C° 0.3 mm 1 mps 749 mmHg 92%
    23:00 +14°C° 0.3 mm 2 mps 748 mmHg 94%

    Day after tomorrow, 27 June, Thursday

    Time Temperature Precipitation Wind Pressure Humidity
    00:00 +14°C° 0.3 mm 2 mps 748 mmHg 96%
    01:00 +14°C° 1.6 mm 2 mps 747 mmHg 97%
    02:00 +14°C° 1.6 mm 2 mps 747 mmHg 97%
    03:00 +14°C° 1.6 mm 2 mps 747 mmHg 98%
    04:00 +14°C° 0.7 mm 1 mps 746 mmHg 98%
    05:00 +14°C° 0.7 mm 1 mps 746 mmHg 98%
    06:00 +14°C° 0.7 mm 1 mps 745 mmHg 97%
    07:00 +15°C° 0.1 mm 1 mps 745 mmHg 94%
    08:00 +15°C° 0.1 mm 1 mps 744 mmHg 91%
    09:00 +16°C° 0.1 mm 2 mps 744 mmHg 88%
    10:00 +16°C° 0.2 mm 2 mps 743 mmHg 89%
    11:00 +14°C° 0.2 mm 3 mps 743 mmHg 89%
    12:00 +14°C° 0.2 mm 3 mps 742 mmHg 90%
    13:00 +14°C° 0.9 mm 3 mps 742 mmHg 92%
    14:00 +14°C° 0.9 mm 4 mps 741 mmHg 94%
    15:00 +13°C° 0.9 mm 4 mps 740 mmHg 96%
    16:00 +14°C° 1.9 mm 4 mps 740 mmHg 97%
    17:00 +14°C° 1.9 mm 5 mps 739 mmHg 97%
    18:00 +14°C° 1.9 mm 5 mps 738 mmHg 97%
    19:00 +14°C° 1.9 mm 5 mps 737 mmHg 98%
    20:00 +15°C° 1.9 mm 5 mps 736 mmHg 98%
    21:00 +15°C° 1.9 mm 5 mps 736 mmHg 98%
    22:00 +16°C° 1.4 mm 5 mps 735 mmHg 98%
    23:00 +17°C° 1.4 mm 4 mps 734 mmHg 98%

    28 June, Friday

    Time Temperature Precipitation Wind Pressure Humidity
    00:00 +18°C° 1.4 mm 4 mps 733 mmHg 98%
    01:00 +18°C° 0.4 mm 4 mps 733 mmHg 98%
    02:00 +18°C° 0.4 mm 4 mps 732 mmHg 97%
    03:00 +18°C° 0.4 mm 4 mps 732 mmHg 97%
    04:00 +18°C° 0.3 mm 4 mps 731 mmHg 97%
    05:00 +18°C° 0.3 mm 4 mps 731 mmHg 97%
    06:00 +18°C° 0.3 mm 4 mps 731 mmHg 96%
    07:00 +18°C° 0.7 mm 4 mps 731 mmHg 95%
    08:00 +19°C° 0.7 mm 4 mps 731 mmHg 93%
    09:00 +19°C° 0.7 mm 4 mps 731 mmHg 92%
    10:00 +19°C° 0.2 mm 5 mps 731 mmHg 87%
    11:00 +17°C° 0.2 mm 5 mps 731 mmHg 82%
    12:00 +17°C° 0.2 mm 5 mps 731 mmHg 77%
    13:00 +19°C° 0.1 mm 5 mps 731 mmHg 74%
    14:00 +19°C° 0.1 mm 6 mps 731 mmHg 72%
    15:00 +19°C° 0.1 mm 6 mps 731 mmHg 69%
    16:00 +19°C° 0.1 mm 5 mps 731 mmHg 71%
    17:00 +17°C° 0.1 mm 5 mps 731 mmHg 73%
    18:00 +17°C° 0.1 mm 5 mps 731 mmHg 75%
    19:00 +17°C° 0.1 mm 4 mps 731 mmHg 81%
    20:00 +14°C° 0.1 mm 4 mps 731 mmHg 86%
    21:00 +13°C° 0.1 mm 4 mps 731 mmHg 91%
    22:00 +12°C° 0 mm 4 mps 731 mmHg 93%
    23:00 +12°C° 0 mm 4 mps 731 mmHg 94%

    29 June, Saturday

    Time Temperature Precipitation Wind Pressure Humidity
    00:00 +11°C° 0 mm 4 mps 731 mmHg 96%
    01:00 +11°C° 0 mm 4 mps 731 mmHg 95%
    02:00 +10°C° 0 mm 5 mps 731 mmHg 94%
    03:00 +12°C° 0 mm 5 mps 731 mmHg 92%
    04:00 +10°C° 0.1 mm 5 mps 731 mmHg 92%
    05:00 +10°C° 0.1 mm 5 mps 732 mmHg 91%
    06:00 +10°C° 0.1 mm 5 mps 732 mmHg 91%
    07:00 +11°C° 0.1 mm 6 mps 732 mmHg 86%
    08:00 +11°C° 0.1 mm 6 mps 733 mmHg 81%
    09:00 +13°C° 0.1 mm 6 mps 733 mmHg 76%
    10:00 +14°C° 0 mm 6 mps 734 mmHg 73%
    11:00 +14°C° 0 mm 6 mps 734 mmHg 70%
    12:00 +15°C° 0 mm 6 mps 735 mmHg 67%
    13:00 +15°C° 0 mm 6 mps 735 mmHg 65%
    14:00 +16°C° 0 mm 6 mps 735 mmHg 63%
    15:00 +16°C° 0 mm 6 mps 736 mmHg 61%
    16:00 +16°C° 0 mm 5 mps 736 mmHg 63%
    17:00 +15°C° 0 mm 5 mps 736 mmHg 65%
    18:00 +15°C° 0 mm 5 mps 736 mmHg 67%
    19:00 +13°C° 0 mm 4 mps 737 mmHg 74%
    20:00 +12°C° 0 mm 3 mps 737 mmHg 82%
    21:00 +10°C° 0 mm 3 mps 738 mmHg 90%
    22:00 +9°C° 0 mm 3 mps 738 mmHg 92%
    23:00 +8°C° 0 mm 3 mps 738 mmHg 94%

    30 June, Sunday

    Time Temperature Precipitation Wind Pressure Humidity
    00:00 +7°C° 0 mm 3 mps 738 mmHg 96%
    01:00 +7°C° 0 mm 3 mps 738 mmHg 97%
    02:00 +5°C° 0 mm 3 mps 738 mmHg 97%
    03:00 +6°C° 0 mm 2 mps 739 mmHg 98%
    04:00 +5°C° 0 mm 3 mps 739 mmHg 95%
    05:00 +7°C° 0 mm 3 mps 739 mmHg 92%
    06:00 +8°C° 0 mm 3 mps 739 mmHg 89%
    07:00 +9°C° 0 mm 3 mps 740 mmHg 84%
    08:00 +10°C° 0 mm 3 mps 740 mmHg 79%
    09:00 +11°C° 0 mm 3 mps 740 mmHg 75%
    10:00 +12°C° 0 mm 3 mps 740 mmHg 73%
    11:00 +12°C° 0 mm 3 mps 741 mmHg 71%
    12:00 +14°C° 0 mm 2 mps 741 mmHg 70%
    13:00 +13°C° 0.2 mm 3 mps 741 mmHg 73%
    14:00 +13°C° 0.2 mm 3 mps 742 mmHg 75%
    15:00 +13°C° 0.2 mm 3 mps 742 mmHg 78%
    16:00 +13°C° 0.1 mm 3 mps 742 mmHg 80%
    17:00 +14°C° 0.1 mm 2 mps 742 mmHg 81%
    18:00 +13°C° 0.1 mm 2 mps 743 mmHg 83%
    19:00 +12°C° 0 mm 2 mps 743 mmHg 87%
    20:00 +10°C° 0 mm 2 mps 743 mmHg 91%
    21:00 +10°C° 0 mm 1 mps 743 mmHg 96%
    22:00 +9°C° 0 mm 1 mps 744 mmHg 96%
    23:00 +8°C° 0 mm 1 mps 744 mmHg 97%
    Show more